Tracking 30995 objects as of 5-Jul-2025
HD Live streaming from Space Station
objects crossing your sky now

COSMOS 2251 DEB

Track COSMOS 2251 DEB now!
10-day predictions


NORAD ID: 33766
Int'l Code: 1993-036P
Perigee: 738.8 km
Apogee: 829.8 km
Inclination: 74.2 °
Period: 100.4 minutes
Semi major axis: 7155 km
RCS: 0.3164 m2 (medium)
Launch date: June 16, 1993
Source: Commonwealth of Independent States (former USSR) (CIS)
Launch site: PLESETSK MISSILE AND SPACE COMPLEX (PKMTR)

Note: This is SATELLITE DEBRIS
Your satellite tracking list
ADEOS 2
Track 1 satellite(s)




NASA's NSSDC Master Catalog

Two Line Element Set (TLE):
1 33766U 93036P   25186.07027451  .00000881  00000-0  31495-3 0  9996
2 33766  74.1868  66.5857 0063555 315.0807  44.5212 14.34370663854413
Source of the keplerian elements: AFSPC